Flag for Slovakia

Past Weather in Prešov, Slovakia — Yesterday and Last 2 Weeks

Now
70 °F

Sunny.


Feels Like: 70 °F
Forecast: 82 / 58 °F
Wind: 7 mph from Southeast

Location: Kosice - Barca

Current Time: Jul 9, 2020 at 8:43:36 pm

Latest Report: Jul 9, 2020 at 8:00 pm


Visibility: 10 mi

Pressure: 30.04 "Hg

Humidity: 78%

Dew Point: 63 °F

Location of PrešovLocation

Past Weather in Prešov — Graph

°F

Prešov Temperature Yesterday

Maximum temperature yesterday: 72 °F (at 3:30 pm)
Minimum temperature yesterday: 50 °F (at 2:30 am)
Average temperature yesterday: 62 °F

High & Low Weather Summary for the Past Weeks

 TemperatureHumidityPressure
High84 °F (Jul 1, 4:30 pm)100% (Jun 25, 5:00 am)30.21 "Hg (Jun 25, 5:00 am)
Low50 °F (Jul 8, 2:30 am)41% (Jul 8, 3:30 pm)29.71 "Hg (Jul 6, 8:00 pm)
Average70 °F73%29.98 "Hg
* Reported Jun 24 7:00 pm — Jul 9 7:30 pm, Prešov. Weather by CustomWeather, © 2020

Note: Actual official high and low records may vary slightly from our data, if they occured in-between our weather recording intervals... More about our weather records

Prešov Weather History for the Previous 24 Hours

Scroll right to see more
 ConditionsComfort  
Time TempWeatherWind HumidityBarometerVisibility
7:30 pm
Thu, Jul 9
72 °FPassing clouds.8 mph69%30.04 "HgN/A
7:00 pm73 °FScattered clouds.9 mph69%30.04 "HgN/A
6:30 pm73 °FSunny.8 mph65%30.04 "Hg10 mi
6:00 pm73 °FScattered clouds.7 mph61%30.04 "HgN/A
5:30 pm72 °FScattered clouds.7 mph69%30.04 "HgN/A
5:00 pm73 °FScattered clouds.3 mph61%30.07 "HgN/A
4:30 pm73 °FScattered clouds.6 mph61%30.07 "HgN/A
4:00 pm73 °FPassing clouds.5 mph61%30.07 "HgN/A
3:30 pm72 °FSunny.3 mph61%30.07 "Hg10 mi
3:00 pm72 °FPartly sunny.3 mph61%30.09 "HgN/A
2:00 pm72 °FPartly sunny.3 mph61%30.09 "HgN/A
1:30 pm70 °FPassing clouds.5 mph64%30.09 "HgN/A
1:00 pm70 °FPassing clouds.6 mph60%30.09 "HgN/A
12:30 pm68 °FPartly sunny.7 mph64%30.09 "HgN/A
12:00 pm68 °FPartly sunny.7 mph69%30.09 "HgN/A
11:30 am68 °FPartly sunny.8 mph64%30.09 "HgN/A
11:00 am68 °FScattered clouds.6 mph64%30.09 "HgN/A
10:30 am66 °FPassing clouds.9 mph73%30.09 "HgN/A
10:00 am66 °FSunny.13 mph68%30.09 "Hg10 mi
9:30 am64 °FSunny.12 mph73%30.09 "Hg10 mi
9:00 am63 °FSunny.13 mph77%30.09 "Hg10 mi
8:30 am64 °FSunny.13 mph73%30.09 "Hg10 mi
8:00 am64 °FSunny.14 mph73%30.07 "Hg10 mi
7:30 am63 °FSunny.12 mph73%30.07 "Hg10 mi
7:00 am63 °FSunny.7 mph73%30.07 "Hg10 mi
6:30 am63 °FSunny.7 mph73%30.07 "Hg10 mi
6:00 am63 °FSunny.8 mph73%30.04 "Hg10 mi
5:30 am61 °FSunny.9 mph77%30.04 "Hg10 mi
5:00 am61 °FSunny.8 mph77%30.04 "Hg10 mi
4:30 am63 °FClear.2 mph73%30.04 "Hg10 mi
4:00 am63 °FClear.2 mph68%30.04 "Hg10 mi
3:00 am63 °FClear.6 mph68%30.04 "Hg10 mi
2:30 am63 °FClear.9 mph68%30.04 "Hg10 mi
2:00 am64 °FClear.9 mph64%30.04 "Hg10 mi
1:30 am64 °FClear.8 mph64%30.04 "Hg10 mi
1:00 am64 °FClear.6 mph64%30.04 "Hg10 mi
12:30 am64 °FClear.6 mph64%30.04 "Hg10 mi
12:00 am64 °FClear.9 mph64%30.04 "Hg10 mi
11:30 pm
Wed, Jul 8
64 °FClear.8 mph64%30.04 "Hg10 mi
11:00 pm64 °FClear.6 mph64%30.04 "Hg10 mi
10:30 pm64 °FClear.2 mph64%30.04 "Hg10 mi
10:00 pm64 °FClear.6 mph68%30.04 "Hg10 mi
9:30 pm64 °FClear.6 mph68%30.04 "Hg10 mi
9:00 pm66 °FClear.5 mph60%30.04 "Hg10 mi
8:30 pm66 °FSunny.2 mph60%30.01 "Hg10 mi
8:00 pm68 °FSunny.2 mph56%30.01 "Hg10 mi
Weather by CustomWeather, © 2020

See weather overview